Warning: Javascript must be enabled to use all the features on this page!


Page Loading - Please Wait...

Click to hideNews Bulletins
Click to hide state-specific text

Current Conditions for Illinois: Groundwater -- 49 site(s) found

PROVISIONAL DATA SUBJECT TO REVISION




Customize table to display other current-condition parameters
Station
Number
Station name Date/Time Depth
to
water
level,
feet
below
LSD
Elev-
ation,
feet
above
NGVD
Group Champaign County
401654088212001 21N7E-13.4h1 (CHAM08-09A)  11/20 09:00 CST 49.43 -- 
401654088212004 21N7E-13.4h4 (CHAM08-09WT)  11/20 09:00 CST 12.75 -- 
Group Cook County
420457088105801 42N9E-28.2a (South Barrington)  11/20 08:15 CST 70.11 -- 
Group Lake County
421132088085901 43N9E-23.4e1 (North Barrington)  11/20 08:15 CST 63.82 -- 
421241088101801 43N9E-15.4e1 (Lake Barrington)  11/20 08:15 CST 20.02 -- 
422803087475301 46N12E-14.6g1 (Zion well 1)  11/20 08:15 CST *** -- 
422803087475302 46N12E-14.6g2 (Zion well 2)  11/20 08:15 CST *** -- 
422803087475303 46N12E-14.6g3 (Zion well 3)  11/20 08:15 CST *** -- 
422803087475304 46N12E-14.6g4 (Zion well 4)  11/20 08:15 CST *** -- 
422803087475305 46N12E-14.6g5 (Zion well 5)  11/20 08:15 CST 2.47 -- 
Group Lee County
413743089310101 19N8E-13.1a1 (LEE-92F CRN)  11/20 08:45 CST 3.64 -- 
413743089310102 19N8E-13.1a2 (LEE-92E)  11/20 08:45 CST 24.00 -- 
Group Mchenry County
421056088380801 43N5E-27.4h1 (14-RIL-S)  11/20 08:15 CST 7.53 -- 
421120088281801 43N7E-19.8d (HUNT-09-03)  02/11 04:00 CST *** -- 
421122088222701 43N7E-23.1d1 (16-GRF-I)  11/20 09:00 CST 15.73 -- 
421122088222702 43N7E-23.1d2 (16-GRF-D)  11/20 09:00 CST 19.53 -- 
421145088194801 43N8E-20.6h1 (17-ALG-S)  11/20 09:00 CST -0.79 -- 
421145088194802 43N8E-20.6h2 (17-ALG-D)  11/20 09:00 CST 90.44 -- 
421321088341101 43N6E-07.1g (MARS-09-01)  08/31 15:00 CST *** -- 
421341088283701 43N6E-01.3b1 (15-COR-S)  11/20 09:00 CST 8.65 -- 
421341088283703 43N6E-01.3b3 (15-COR-D)  11/20 09:00 CST 8.63 -- 
421533088421801 44N5E-30.8c1 (10-MAR-S) (McHenry Co CRN)  11/20 09:00 CST *** -- 
421547088142301 44N9E-25.1d (WAUC-02-12)  11/20 08:30 CST 91.46 -- 
421626088311401 44N6E-22.4c1 (11-SEN-I)  11/20 09:00 CST 3.56 -- 
421653088370901 44N5E-23.5g (MARN-09-02)  11/20 09:00 CST 18.88 -- 
421653088370902 44N5E-23.5g2 (MARN-10-03)  11/20 09:00 CST 28.16 -- 
421747088270701 44N7E-17.8h1 (WOOD-08-01)  11/20 09:00 CST 76.80 -- 
421820088154501 44N8E-11.3d1 (13-NUN-I)  11/20 08:45 CST 46.08 -- 
421914088125301 44N9E-05.7d1 (WAUC-08-13)  11/20 08:45 CST 18.17 -- 
422032088222001 45N7E-25.7a (MHEN-08-01)  11/20 08:00 CST 34.05 -- 
422120088330901 45N6E-29.1h (MARN-09-01)  11/20 07:15 CST 30.50 -- 
422308088195601 45N8E-17.7h1 (9-MCH-S)  11/20 09:00 CST 11.57 -- 
422308088195602 45N8E-17.7h2 (9-MCH-D)  11/20 09:00 CST 53.07 -- 
422308088231001 45N7E-11.5a1 (8-GRN-I)  11/20 09:00 CST 4.98 -- 
422308088231002 45N7E-11.5a2 (8-GRN-D)  11/20 09:00 CST 16.24 -- 
422308088264201 45N7E-08.5a (HEBR-08-02)  11/20 08:00 CST 8.29 -- 
422358088360201 45N5E-12.5h (HARV-09-01)  11/20 08:00 CST 28.57 -- 
422433088140601 45N9E-06.7e (NW-6-45-9)  11/20 09:00 CST 29.45 -- 
422704088385301 46N5E-21.1d1 (1-CHE-S)  11/20 09:00 CST *** -- 
422828088333301 46N6E-08.46l (2-ALD-D)  09/21 11:45 CST *** -- 
422845088285401 46N6E-12.5d (HEBR-09-03)  11/20 09:00 CST 21.95 -- 
422848088191001 46N8E-08.2e1 (4-RCH-S)  11/20 08:30 CST 7.52 -- 
422848088191002 46N8E-08.2e2 (4-RCH-I)  11/20 08:30 CST 13.01 -- 
422858088235601 46N7E-10.2f (HEBR-08-01)  11/06 12:15 CST *** -- 
422925088255401 46N7E-04.8b1 (3-HEB-I)  10/06 10:00 CST *** -- 
Group Saline County
374453088261701 9S7E-9.4a (SE Illinois College CRN)  11/20 09:00 CST 9.14 -- 
Group Tazewell County
401921089282102 22N3W-29.8a2 (MTH-17N)  11/20 08:15 CST 34.40 -- 
401921089282103 22N3W-29.8a3 (MTH-17WT CRN)  11/20 08:15 CST 8.19 -- 
Group Vermilion County
402558087351501 23N11W-22.8a1 (Hoopeston CRN)  11/20 08:15 CST 22.55 -- 

Data status codes:
  ***     Temporarily unavailable
  --     Parameter not determined